Weather History for Willimantic, CT

Change the Weather History Date:

Friday, February 15, 2013

  Actual Average Record
Temperature  
Mean Temperature 34 °F -  
Max Temperature 48 °F 37 °F 67 °F (1954)
Min Temperature 21 °F 15 °F -8 °F (1979)
Degree Days  
Heating Degree Days 30    
Moisture  
Dew Point 26 °F    
Average Humidity 78    
Maximum Humidity 93    
Minimum Humidity 50    
Precipitation  
Precipitation 0.00 in - - ()
Sea Level Pressure  
Sea Level Pressure 29.99 in    
Wind  
Wind Speed 2 mph (South)    
Max Wind Speed 16 mph    
Max Gust Speed 20 mph    
Visibility 6 miles    
Events Fog    
Averages and records for this station are not official NWS values.
T = Trace of Precipitation, MM = Missing Value Source: NWS Daily Summary

Daily Weather History Graph

Daily Weather History Graph

Search for Another Location

Airport:

Trip Planner

Search our weather history database for the weather conditions in past years. The results will help you decide how hot, cold, wet, or windy it might be!

Date:

Astronomy

Feb. 15, 2013 Rise Set
Actual Time 6:43 AM EST 5:22 PM EST
Civil Twilight 6:15 AM EST 5:50 PM EST
Nautical Twilight 5:42 AM EST 6:23 PM EST
Astronomical Twilight 5:10 AM EST 6:55 PM EST
Moon 9:12 AM EST (2/15) 11:26 PM EST (2/15)
Length of Visible Light 11h 35m
Length of Day
10h 38m
Waxing Crescent, 30% of the Moon is Illuminated
Feb 15
Waxing Crescent
Feb 17
First Quarter
Feb 25
Full
Mar 4
Last Quarter
Mar 11
New

Hourly Weather History & Observations

Time (EST) Temp. Windchill Dew Point Humidity Pressure Visibility Wind Dir Wind Speed Gust Speed Precip Events Conditions
12:52 AM 23.0 °F - 18.0 °F 81% 30.01 in 8.0 mi Calm Calm - N/A   Scattered Clouds
1:02 AM 24.8 °F - 19.4 °F 80% 30.01 in 8.0 mi Calm Calm - N/A   Mostly Cloudy
1:23 AM 24.8 °F - 21.2 °F 86% 30.01 in 6.0 mi Calm Calm - N/A   Scattered Clouds
1:52 AM 21.0 °F - 17.1 °F 85% 30.01 in 6.0 mi Calm Calm - N/A   Clear
2:13 AM 21.2 °F - 17.6 °F 86% 30.00 in 6.0 mi Calm Calm - N/A   Scattered Clouds
2:22 AM 24.8 °F - 19.4 °F 80% 30.01 in 6.0 mi Calm Calm - N/A   Haze
2:52 AM 26.1 °F - 21.9 °F 84% 30.01 in 7.0 mi Calm Calm - N/A   Overcast
3:52 AM 25.0 °F - 19.9 °F 81% 30.00 in 6.0 mi Calm Calm - N/A   Haze
4:52 AM 26.1 °F - 21.0 °F 81% 30.01 in 7.0 mi Calm Calm - N/A   Overcast
5:52 AM 26.1 °F - 23.0 °F 88% 30.01 in 5.0 mi Calm Calm - N/A   Overcast
6:47 AM 28.4 °F - 24.8 °F 86% 30.00 in 2.0 mi Calm Calm - N/A   Overcast
6:52 AM 28.9 °F - 26.1 °F 89% 30.01 in 2.0 mi Calm Calm - N/A   Overcast
7:52 AM 28.9 °F - 27.0 °F 92% 30.02 in 2.0 mi Calm Calm - N/A   Overcast
8:05 AM 30.2 °F - 26.6 °F 86% 30.01 in 1.0 mi Calm Calm - N/A   Mist
8:12 AM 30.2 °F - 28.4 °F 93% 30.01 in 0.2 mi Calm Calm - N/A Fog Light Freezing Fog
8:52 AM 30.9 °F - 28.9 °F 92% 30.03 in 0.2 mi Calm Calm - N/A Fog Light Freezing Fog
8:59 AM 32.0 °F - 30.2 °F 93% 30.02 in 1.0 mi Calm Calm - N/A   Mist
9:06 AM 33.8 °F - 30.2 °F 87% 30.02 in 2.0 mi Calm Calm - N/A   Scattered Clouds
9:22 AM 35.6 °F 30.7 °F 30.2 °F 81% 30.01 in 4.0 mi South 5.8 mph - N/A   Haze
9:52 AM 37.9 °F 31.5 °F 30.9 °F 76% 30.01 in 6.0 mi South 9.2 mph - N/A   Haze
10:52 AM 43.0 °F 37.2 °F 32.0 °F 65% 30.01 in 7.0 mi South 10.4 mph - N/A   Clear
11:52 AM 46.0 °F 41.9 °F 30.9 °F 56% 29.99 in 9.0 mi SSW 8.1 mph - N/A   Clear
12:52 PM 46.9 °F - 30.0 °F 52% 29.96 in 9.0 mi SSW 9.2 mph 19.6 mph N/A   Clear
1:52 PM 48.0 °F - 30.0 °F 50% 29.95 in 10.0 mi SW 8.1 mph - N/A   Clear
2:52 PM 48.0 °F - 30.9 °F 52% 29.93 in 10.0 mi South 16.1 mph - N/A   Clear
3:52 PM 48.0 °F - 30.9 °F 52% 29.93 in 10.0 mi SSW 9.2 mph - N/A   Clear
4:52 PM 46.9 °F - 30.0 °F 52% 29.93 in 10.0 mi SSW 6.9 mph - N/A   Clear
5:52 PM 43.0 °F 41.3 °F 30.9 °F 62% 29.95 in 10.0 mi SSE 3.5 mph - N/A   Clear
6:52 PM 41.0 °F 39.0 °F 32.0 °F 70% 29.95 in 10.0 mi SSE 3.5 mph - N/A   Clear
8:52 PM 32.0 °F - 27.0 °F 82% 29.95 in 6.0 mi Calm Calm - N/A   Haze
9:52 PM 30.9 °F - 28.0 °F 89% 29.95 in 5.0 mi Calm Calm - N/A   Clear
10:52 PM 30.0 °F 25.2 °F 28.0 °F 92% 29.94 in 4.0 mi NE 4.6 mph - N/A   Scattered Clouds
11:52 PM 30.9 °F - 28.0 °F 89% 29.94 in 5.0 mi Calm Calm - N/A   Overcast